Location: Gälforsberget
(66.6500°N, 22.4167°E)
Time: 17:48:19
(UTC+00:00)

Cosmos 2016 Rocket - Pass Details

Date: 11 April 2026
Orbit: 945 x 1000 km, 83.0° (Epoch: 16 May)

Event Time Altitude Azimuth Distance (km) Brightness Sun altitude
Exits shadow 22:42:36 21° 174° (S) 2,104 5.1 -14.7°
Maximum altitude 22:47:01 65° 98° (E) 1,097 4.2 -14.7°
Drops below altitude 10° 22:53:18 10° 18° (NNE) 2,771 7.7 -14.6°
Sets 22:55:51 0° 16° (NNE) 3,717 8.8 -14.6°
